QPF
0.05 0.07 0.07 0.07 0.08 0.08 0.08 0.09 0.09 0.07 0.06 0.06 0.05 0.03 0.03 0.03 0.02 0.03 0.04 0.02 0.01 0.01 0.02 0.02 0.02 0.03 0.04 0.06 0.08 0.09 0.10 0.11 0.11 0.11 0.10 0.09 0.10 0.13
0.05 0.07 0.07 0.06 0.07 0.08 0.09 0.08 0.07 0.06 0.06 0.04 0.05 0.04 0.03 0.02 0.02 0.03 0.03 0.01 0.01 0.01 0.01 0.02 0.02 0.03 0.05 0.06 0.08 0.11 0.11 0.10 0.09 0.09 0.09 0.09 0.09 0.10
0.04 0.04 0.04 0.04 0.05 0.06 0.06 0.05 0.04 0.04 0.04 0.04 0.03 0.03 0.03 0.04 0.03 0.03 0.03 0.03 0.02 0.02 0.01 0.02 0.03 0.04 0.06 0.07 0.07 0.08 0.09 0.11 0.11 0.09 0.09 0.09 0.10 0.12
0.03 0.03 0.03 0.03 0.04 0.04 0.04 0.03 0.03 0.04 0.04 0.04 0.04 0.04 0.04 0.04 0.03 0.04 0.03 0.03 0.02 0.01 0.02 0.02 0.03 0.04 0.05 0.05 0.05 0.05 0.05 0.05 0.07 0.08 0.08 0.09 0.11 0.13
0.02 0.03 0.04 0.04 0.03 0.03 0.03 0.04 0.04 0.04 0.05 0.04 0.03 0.03 0.03 0.02 0.02 0.02 0.02 0.02 0.02 0.02 0.03 0.02 0.02 0.03 0.03 0.03 0.03 0.04 0.04 0.04 0.04 0.05 0.05 0.07 0.09 0.09
0.02 0.03 0.03 0.03 0.04 0.04 0.04 0.04 0.05 0.05 0.05 0.04 0.04 0.03 0.03 0.02 0.03 0.03 0.02 0.03 0.03 0.03 0.03 0.02 0.02 0.01 0.01 0.01 0.01 0.01 0.02 0.03 0.05 0.06 0.08 0.09 0.09 0.09
0.03 0.03 0.02 0.03 0.04 0.04 0.03 0.04 0.05 0.04 0.04 0.04 0.03 0.03 0.03 0.03 0.03 0.02 0.02 0.02 0.03 0.03 0.03 0.03 0.02 0.01 0.01 0.01 0.01 0.01 0.01 0.02 0.04 0.05 0.07 0.08 0.07 0.07
0.02 0.03 0.03 0.04 0.04 0.04 0.04 0.04 0.04 0.03 0.03 0.03 0.02 0.03 0.03 0.03 0.03 0.03 0.03 0.04 0.04 0.04 0.04 0.04 0.03 0.02 0.01 0.01 0.01 0.01 0.02 0.03 0.05 0.06 0.06 0.06 0.07 0.07
0.03 0.03 0.03 0.03 0.05 0.05 0.05 0.06 0.03 0.01 0.01 0.02 0.03 0.03 0.04 0.04 0.03 0.03 0.03 0.03 0.03 0.04 0.04 0.04 0.04 0.03 0.02 0.02 0.02 0.02 0.02 0.03 0.06 0.08 0.09 0.08 0.08 0.08
0.02 0.03 0.04 0.04 0.04 0.05 0.06 0.05 0.03 0.02 0.02 0.02 0.02 0.03 0.03 0.04 0.05 0.05 0.05 0.04 0.03 0.04 0.04 0.03 0.03 0.02 0.02 0.02 0.02 0.02 0.02 0.02 0.04 0.05 0.05 0.05 0.05 0.05
0.02 0.03 0.04 0.05 0.06 0.08 0.08 0.07 0.06 0.04 0.04 0.05 0.04 0.04 0.04 0.04 0.04 0.05 0.05 0.04 0.03 0.03 0.04 0.04 0.03 0.04 0.04 0.04 0.04 0.04 0.03 0.03 0.04 0.04 0.03 0.03 0.03 0.04
0.03 0.03 0.03 0.05 0.07 0.08 0.07 0.06 0.05 0.05 0.06 0.06 0.05 0.04 0.04 0.04 0.03 0.04 0.05 0.05 0.05 0.04 0.05 0.05 0.05 0.05 0.05 0.05 0.05 0.04 0.04 0.04 0.04 0.04 0.04 0.05 0.05 0.05
0.04 0.03 0.04 0.05 0.06 0.07 0.07 0.06 0.06 0.08 0.09 0.08 0.06 0.05 0.05 0.04 0.04 0.04 0.04 0.05 0.05 0.06 0.07 0.07 0.07 0.07 0.08 0.07 0.06 0.05 0.04 0.04 0.04 0.04 0.05 0.05 0.05 0.05
0.03 0.03 0.03 0.04 0.06 0.08 0.08 0.08 0.08 0.08 0.08 0.08 0.07 0.06 0.05 0.04 0.04 0.03 0.03 0.03 0.04 0.04 0.05 0.05 0.05 0.05 0.07 0.07 0.06 0.05 0.04 0.03 0.03 0.03 0.03 0.03 0.02 0.02
0.04 0.04 0.05 0.05 0.06 0.05 0.05 0.05 0.04 0.03 0.04 0.04 0.03 0.03 0.03 0.03 0.03 0.03 0.02 0.02 0.02 0.03 0.03 0.02 0.03 0.04 0.05 0.04 0.04 0.04 0.04 0.04 0.04 0.03 0.03 0.02 0.02 0.02
0.05 0.05 0.05 0.03 0.03 0.03 0.03 0.03 0.03 0.03 0.03 0.02 0.02 0.02 0.03 0.03 0.03 0.02 0.02 0.01 0.02 0.02 0.02 0.02 0.02 0.02 0.02 0.03 0.03 0.03 0.03 0.04 0.03 0.03 0.03 0.02 0.02 0.01
0.05 0.05 0.05 0.04 0.04 0.03 0.02 0.02 0.02 0.02 0.02 0.02 0.02 0.02 0.03 0.03 0.03 0.04 0.04 0.05 0.04 0.04 0.03 0.02 0.02 0.02 0.02 0.03 0.03 0.03 0.03 0.04 0.04 0.04 0.03 0.03 0.02 0.01
0.03 0.03 0.03 0.03 0.03 0.02 0.02 0.02 0.01 0.02 0.02 0.03 0.03 0.04 0.05 0.04 0.04 0.04 0.05 0.05 0.06 0.06 0.06 0.05 0.05 0.05 0.04 0.03 0.03 0.03 0.04 0.05 0.05 0.05 0.04 0.03 0.02 0.02
0.02 0.02 0.02 0.02 0.02 0.02 0.02 0.02 0.02 0.02 0.02 0.02 0.02 0.03 0.04 0.05 0.06 0.06 0.06 0.07 0.08 0.09 0.09 0.08 0.08 0.08 0.08 0.07 0.06 0.05 0.06 0.07 0.07 0.07 0.05 0.04 0.03 0.02
0.03 0.03 0.03 0.03 0.03 0.03 0.02 0.02 0.02 0.02 0.02 0.02 0.02 0.03 0.04 0.04 0.05 0.06 0.06 0.06 0.06 0.06 0.06 0.05 0.05 0.05 0.05 0.04 0.04 0.04 0.04 0.04 0.05 0.06 0.06 0.05 0.05 0.04
0.04 0.04 0.05 0.06 0.06 0.05 0.04 0.03 0.03 0.03 0.03 0.03 0.03 0.04 0.05 0.05 0.05 0.05 0.06 0.06 0.05 0.05 0.04 0.03 0.03 0.04 0.04 0.04 0.04 0.04 0.04 0.05 0.05 0.05 0.05 0.06 0.07 0.07
0.05 0.05 0.06 0.08 0.07 0.05 0.04 0.04 0.03 0.02 0.02 0.03 0.04 0.05 0.05 0.06 0.06 0.06 0.06 0.06 0.05 0.04 0.04 0.03 0.04 0.04 0.05 0.04 0.03 0.03 0.04 0.05 0.07 0.07 0.07 0.06 0.07 0.08
0.03 0.04 0.05 0.06 0.07 0.06 0.05 0.04 0.04 0.03 0.02 0.02 0.03 0.03 0.04 0.04 0.04 0.04 0.04 0.04 0.05 0.05 0.05 0.04 0.04 0.04 0.03 0.03 0.03 0.03 0.04 0.06 0.06 0.07 0.08 0.09 0.09 0.09
MSLP
1013.48 1013.81 1014.14 1014.45 1014.70 1014.89 1015.01 1015.06 1015.07 1015.06 1015.05 1015.08 1015.16 1015.30 1015.51 1015.78 1016.09 1016.43 1016.79 1017.15 1017.50 1017.85 1018.19 1018.53 1018.87 1019.20 1019.53 1019.85 1020.16 1020.44 1020.70 1020.92 1021.11 1021.25 1021.35 1021.40 1021.41 1021.39
1012.75 1013.04 1013.34 1013.63 1013.90 1014.13 1014.31 1014.46 1014.57 1014.68 1014.80 1014.96 1015.15 1015.40 1015.69 1016.03 1016.39 1016.76 1017.13 1017.49 1017.84 1018.17 1018.50 1018.82 1019.15 1019.47 1019.80 1020.12 1020.43 1020.72 1020.97 1021.19 1021.37 1021.50 1021.58 1021.62 1021.61 1021.56
1012.11 1012.36 1012.62 1012.88 1013.14 1013.38 1013.60 1013.80 1014.00 1014.21 1014.45 1014.73 1015.05 1015.41 1015.80 1016.21 1016.63 1017.03 1017.42 1017.79 1018.13 1018.45 1018.76 1019.06 1019.37 1019.69 1020.01 1020.32 1020.63 1020.92 1021.17 1021.39 1021.57 1021.69 1021.76 1021.79 1021.77 1021.72
1011.56 1011.78 1012.00 1012.23 1012.46 1012.68 1012.90 1013.14 1013.39 1013.68 1014.01 1014.40 1014.82 1015.29 1015.77 1016.26 1016.73 1017.18 1017.59 1017.96 1018.29 1018.60 1018.89 1019.18 1019.48 1019.79 1020.11 1020.43 1020.75 1021.05 1021.31 1021.54 1021.71 1021.84 1021.91 1021.94 1021.93 1021.89
1011.08 1011.28 1011.48 1011.67 1011.85 1012.05 1012.25 1012.49 1012.77 1013.10 1013.50 1013.96 1014.47 1015.01 1015.57 1016.12 1016.64 1017.12 1017.54 1017.92 1018.25 1018.55 1018.84 1019.13 1019.43 1019.75 1020.09 1020.43 1020.77 1021.09 1021.38 1021.63 1021.82 1021.96 1022.05 1022.10 1022.11 1022.08
1010.61 1010.81 1010.99 1011.15 1011.30 1011.46 1011.64 1011.86 1012.14 1012.49 1012.93 1013.42 1013.98 1014.58 1015.18 1015.77 1016.32 1016.81 1017.25 1017.62 1017.95 1018.26 1018.55 1018.86 1019.18 1019.53 1019.91 1020.29 1020.68 1021.04 1021.37 1021.66 1021.89 1022.06 1022.18 1022.25 1022.29 1022.29
1010.09 1010.30 1010.49 1010.64 1010.77 1010.90 1011.05 1011.25 1011.52 1011.87 1012.30 1012.81 1013.39 1013.99 1014.61 1015.20 1015.75 1016.24 1016.68 1017.05 1017.39 1017.71 1018.02 1018.36 1018.73 1019.13 1019.56 1020.01 1020.46 1020.89 1021.28 1021.62 1021.90 1022.12 1022.28 1022.38 1022.45 1022.48
1009.48 1009.73 1009.93 1010.09 1010.22 1010.34 1010.48 1010.67 1010.92 1011.25 1011.67 1012.16 1012.71 1013.30 1013.89 1014.46 1014.98 1015.45 1015.87 1016.24 1016.58 1016.92 1017.27 1017.66 1018.09 1018.56 1019.07 1019.60 1020.13 1020.63 1021.09 1021.50 1021.83 1022.10 1022.30 1022.44 1022.53 1022.59
1008.81 1009.09 1009.32 1009.50 1009.65 1009.78 1009.93 1010.11 1010.34 1010.65 1011.04 1011.50 1012.01 1012.54 1013.08 1013.60 1014.08 1014.51 1014.90 1015.26 1015.61 1015.98 1016.37 1016.81 1017.31 1017.86 1018.45 1019.07 1019.68 1020.26 1020.79 1021.26 1021.65 1021.96 1022.19 1022.37 1022.49 1022.57
1008.10 1008.42 1008.69 1008.90 1009.08 1009.24 1009.40 1009.59 1009.82 1010.11 1010.47 1010.88 1011.33 1011.79 1012.26 1012.71 1013.13 1013.52 1013.88 1014.23 1014.58 1014.97 1015.41 1015.91 1016.48 1017.10 1017.77 1018.45 1019.13 1019.77 1020.36 1020.88 1021.30 1021.65 1021.92 1022.12 1022.26 1022.36
1007.45 1007.79 1008.08 1008.33 1008.55 1008.74 1008.93 1009.13 1009.37 1009.64 1009.97 1010.32 1010.71 1011.11 1011.51 1011.89 1012.24 1012.58 1012.91 1013.25 1013.61 1014.03 1014.51 1015.05 1015.67 1016.35 1017.06 1017.80 1018.52 1019.19 1019.81 1020.35 1020.80 1021.17 1021.46 1021.68 1021.84 1021.96
1006.92 1007.25 1007.56 1007.83 1008.07 1008.29 1008.51 1008.74 1008.98 1009.25 1009.54 1009.86 1010.19 1010.53 1010.86 1011.18 1011.49 1011.79 1012.10 1012.43 1012.81 1013.25 1013.75 1014.33 1014.97 1015.68 1016.41 1017.15 1017.87 1018.55 1019.16 1019.70 1020.15 1020.52 1020.82 1021.05 1021.24 1021.39
1006.53 1006.84 1007.13 1007.41 1007.66 1007.91 1008.14 1008.39 1008.64 1008.90 1009.18 1009.47 1009.77 1010.06 1010.35 1010.63 1010.91 1011.20 1011.50 1011.84 1012.23 1012.69 1013.21 1013.80 1014.45 1015.14 1015.85 1016.56 1017.24 1017.88 1018.45 1018.96 1019.39 1019.75 1020.05 1020.30 1020.52 1020.70
1006.27 1006.53 1006.78 1007.04 1007.29 1007.54 1007.78 1008.04 1008.29 1008.56 1008.84 1009.12 1009.40 1009.68 1009.95 1010.23 1010.51 1010.81 1011.13 1011.49 1011.90 1012.37 1012.90 1013.48 1014.10 1014.75 1015.41 1016.05 1016.66 1017.23 1017.73 1018.18 1018.58 1018.92 1019.22 1019.50 1019.75 1019.98
1006.07 1006.26 1006.46 1006.67 1006.89 1007.12 1007.37 1007.62 1007.89 1008.16 1008.45 1008.74 1009.03 1009.33 1009.63 1009.93 1010.25 1010.58 1010.95 1011.35 1011.79 1012.28 1012.80 1013.36 1013.94 1014.52 1015.10 1015.65 1016.16 1016.63 1017.06 1017.45 1017.80 1018.13 1018.44 1018.74 1019.04 1019.33
1005.84 1005.94 1006.07 1006.22 1006.40 1006.60 1006.83 1007.08 1007.35 1007.64 1007.95 1008.27 1008.61 1008.95 1009.30 1009.67 1010.05 1010.45 1010.88 1011.34 1011.82 1012.33 1012.85 1013.38 1013.91 1014.42 1014.90 1015.35 1015.76 1016.14 1016.49 1016.81 1017.13 1017.45 1017.78 1018.12 1018.48 1018.84
1005.48 1005.50 1005.55 1005.63 1005.75 1005.91 1006.11 1006.36 1006.64 1006.95 1007.30 1007.67 1008.06 1008.48 1008.91 1009.37 1009.84 1010.33 1010.85 1011.38 1011.91 1012.45 1012.97 1013.47 1013.95 1014.39 1014.78 1015.14 1015.46 1015.76 1016.05 1016.33 1016.63 1016.96 1017.32 1017.71 1018.13 1018.57
1004.94 1004.87 1004.83 1004.84 1004.90 1005.02 1005.21 1005.44 1005.74 1006.08 1006.47 1006.90 1007.37 1007.88 1008.41 1008.97 1009.55 1010.15 1010.75 1011.36 1011.95 1012.52 1013.06 1013.55 1013.99 1014.37 1014.70 1014.99 1015.25 1015.50 1015.75 1016.02 1016.33 1016.68 1017.08 1017.54 1018.03 1018.54
1004.19 1004.04 1003.93 1003.88 1003.89 1003.97 1004.14 1004.37 1004.69 1005.06 1005.50 1006.00 1006.55 1007.15 1007.78 1008.45 1009.14 1009.84 1010.54 1011.22 1011.88 1012.49 1013.05 1013.53 1013.96 1014.31 1014.61 1014.86 1015.09 1015.32 1015.57 1015.85 1016.19 1016.58 1017.04 1017.56 1018.11 1018.68
1003.25 1003.04 1002.87 1002.77 1002.75 1002.81 1002.97 1003.21 1003.54 1003.96 1004.45 1005.01 1005.64 1006.32 1007.05 1007.81 1008.60 1009.39 1010.17 1010.93 1011.65 1012.30 1012.88 1013.39 1013.81 1014.17 1014.46 1014.71 1014.95 1015.19 1015.46 1015.77 1016.16 1016.61 1017.12 1017.69 1018.29 1018.91
1002.17 1001.92 1001.72 1001.59 1001.55 1001.61 1001.77 1002.03 1002.39 1002.85 1003.39 1004.01 1004.69 1005.45 1006.25 1007.09 1007.95 1008.81 1009.67 1010.48 1011.25 1011.94 1012.56 1013.09 1013.53 1013.90 1014.22 1014.49 1014.76 1015.03 1015.35 1015.71 1016.15 1016.65 1017.21 1017.82 1018.45 1019.09
1001.01 1000.74 1000.53 1000.40 1000.37 1000.45 1000.63 1000.92 1001.31 1001.80 1002.38 1003.05 1003.78 1004.58 1005.44 1006.33 1007.24 1008.15 1009.05 1009.91 1010.71 1011.44 1012.08 1012.64 1013.11 1013.52 1013.86 1014.18 1014.49 1014.81 1015.17 1015.59 1016.06 1016.60 1017.20 1017.83 1018.48 1019.12
999.81 999.54 999.35 999.25 999.25 999.36 999.58 999.91 1000.34 1000.87 1001.49 1002.18 1002.95 1003.78 1004.66 1005.57 1006.51 1007.45 1008.37 1009.25 1010.07 1010.82 1011.49 1012.07 1012.58 1013.01 1013.40 1013.75 1014.10 1014.47 1014.87 1015.32 1015.83 1016.39 1017.00 1017.63 1018.27 1018.89
Thickness
5753 5751 5749 5750 5749 5749 5747 5745 5739 5735 5738 5742 5743 5745 5743 5741 5737 5736 5735 5731 5729 5728 5726 5724 5723 5721 5720 5719 5718 5716 5715 5713 5712 5710 5708 5707 5705 5704
5750 5748 5747 5749 5749 5747 5745 5743 5742 5737 5735 5739 5738 5740 5738 5737 5733 5733 5731 5728 5726 5725 5723 5721 5719 5718 5716 5715 5714 5712 5711 5710 5708 5706 5705 5703 5701 5699
5750 5748 5746 5746 5745 5745 5744 5742 5740 5737 5733 5735 5736 5735 5731 5730 5729 5728 5728 5727 5725 5721 5719 5717 5716 5714 5713 5711 5709 5708 5706 5705 5703 5702 5700 5698 5696 5695
5748 5746 5745 5745 5742 5742 5740 5739 5738 5735 5731 5728 5729 5729 5726 5726 5724 5723 5724 5724 5723 5719 5716 5713 5711 5709 5708 5706 5705 5703 5702 5700 5699 5697 5695 5694 5691 5689
5747 5744 5743 5741 5739 5739 5736 5736 5736 5735 5731 5728 5727 5726 5725 5723 5720 5719 5720 5718 5718 5716 5712 5710 5707 5705 5703 5701 5700 5698 5696 5695 5693 5691 5689 5687 5685 5683
5744 5742 5741 5739 5737 5735 5734 5732 5731 5730 5728 5726 5725 5723 5721 5720 5717 5715 5714 5713 5713 5713 5710 5707 5704 5701 5698 5696 5694 5692 5690 5688 5686 5684 5682 5680 5678 5676
5740 5739 5738 5736 5733 5731 5731 5729 5727 5725 5724 5722 5721 5720 5717 5713 5713 5713 5711 5710 5708 5708 5706 5705 5702 5699 5696 5692 5689 5686 5684 5682 5680 5678 5675 5673 5671 5669
5735 5734 5734 5732 5729 5724 5723 5722 5720 5719 5719 5717 5716 5714 5711 5711 5709 5708 5707 5704 5701 5704 5700 5700 5699 5696 5694 5690 5685 5681 5678 5675 5673 5670 5668 5666 5664 5662
5730 5728 5729 5729 5726 5724 5719 5715 5714 5713 5712 5712 5711 5709 5708 5707 5704 5702 5700 5699 5697 5698 5695 5693 5693 5690 5689 5685 5679 5675 5672 5668 5665 5663 5660 5657 5656 5654
5724 5723 5722 5721 5720 5717 5715 5713 5712 5710 5708 5706 5705 5704 5704 5702 5699 5697 5695 5693 5692 5691 5688 5686 5687 5685 5684 5679 5673 5669 5665 5661 5658 5655 5652 5649 5647 5645
5719 5717 5716 5714 5710 5707 5707 5706 5705 5704 5701 5698 5696 5695 5693 5691 5690 5690 5687 5685 5683 5684 5682 5679 5679 5677 5676 5673 5668 5662 5658 5654 5651 5647 5644 5641 5638 5636
5712 5710 5706 5705 5701 5699 5700 5698 5696 5696 5695 5693 5688 5686 5685 5683 5681 5681 5681 5679 5678 5676 5675 5671 5671 5668 5665 5665 5661 5656 5651 5647 5644 5640 5637 5633 5630 5628
5705 5704 5701 5695 5692 5690 5689 5691 5689 5687 5687 5685 5684 5682 5679 5677 5675 5673 5672 5672 5670 5669 5669 5665 5663 5661 5658 5655 5652 5649 5645 5642 5637 5633 5629 5625 5622 5620
5696 5696 5693 5685 5682 5681 5680 5679 5677 5676 5679 5678 5676 5675 5673 5671 5669 5666 5664 5662 5661 5660 5659 5657 5655 5652 5650 5646 5643 5641 5637 5634 5631 5628 5624 5618 5614 5611
5685 5682 5678 5674 5673 5673 5670 5669 5668 5670 5670 5669 5668 5667 5666 5664 5661 5657 5655 5653 5651 5650 5649 5647 5646 5644 5641 5639 5636 5633 5629 5626 5622 5619 5616 5613 5609 5606
5673 5670 5666 5664 5664 5663 5662 5661 5661 5662 5661 5660 5659 5658 5657 5655 5652 5650 5647 5645 5643 5641 5639 5636 5634 5633 5631 5629 5628 5624 5621 5618 5616 5611 5608 5605 5603 5600
5662 5661 5659 5658 5658 5658 5657 5655 5654 5652 5650 5650 5649 5648 5647 5645 5643 5641 5637 5636 5634 5632 5629 5626 5624 5622 5620 5618 5616 5615 5612 5609 5607 5603 5599 5597 5595 5593
5649 5651 5651 5650 5650 5649 5648 5646 5644 5642 5641 5639 5638 5637 5636 5633 5631 5629 5628 5626 5623 5621 5619 5617 5614 5611 5610 5608 5604 5603 5602 5599 5597 5593 5591 5589 5587 5585
5641 5643 5642 5641 5640 5640 5639 5637 5635 5633 5631 5629 5628 5627 5625 5623 5621 5618 5616 5614 5612 5611 5609 5608 5605 5602 5599 5598 5595 5590 5589 5588 5586 5584 5582 5580 5579 5578
5633 5634 5632 5631 5630 5629 5628 5627 5625 5624 5622 5620 5618 5616 5614 5612 5611 5608 5606 5603 5602 5600 5598 5597 5594 5592 5590 5589 5587 5584 5578 5578 5576 5574 5574 5572 5570 5567
5622 5622 5622 5621 5620 5619 5618 5617 5615 5613 5611 5610 5608 5605 5604 5602 5600 5599 5597 5592 5590 5590 5588 5587 5583 5579 5579 5577 5576 5576 5573 5566 5564 5563 5562 5562 5561 5559
5609 5609 5609 5609 5608 5607 5606 5605 5604 5602 5600 5600 5598 5596 5595 5593 5591 5589 5588 5585 5583 5582 5580 5578 5573 5570 5569 5568 5567 5566 5564 5558 5553 5550 5548 5548 5548 5548
5599 5598 5598 5597 5596 5595 5594 5594 5592 5591 5590 5590 5588 5586 5585 5584 5582 5581 5579 5577 5575 5573 5570 5568 5565 5563 5562 5560 5558 5557 5554 5550 5548 5545 5541 5537 5534 5532